H1 CPF 2 NER 2023 7 24 9 205 01 glonass143 H2 2007501 9143 46805 2023 7 24 0 0 0 2023 7 27 23 45 0 900 1 1 0 0 0 1 H9 10 0 60149 0.00000 0 2440054.733 19329467.160 16468507.257 10 0 60149 900.00000 0 2070636.303 21178260.401 14066797.341 10 0 60149 1800.00000 0 1894149.648 22742150.640 11391860.572 10 0 60149 2700.00000 0 1872737.642 23974439.559 8495585.156 10 0 60149 3600.00000 0 1960746.793 24838930.408 5434195.470 10 0 60149 4500.00000 0 2106892.269 25311369.888 2267161.813 10 0 60149 5400.00000 0 2256667.484 25380408.390 -943956.471 10 0 60149 6300.00000 0 2354895.663 25048037.456 -4136711.737 10 0 60149 7200.00000 0 2348314.495 24329485.352 -7248988.683 10 0 60149 8100.00000 0 2188083.254 23252574.578 -10220220.342 10 0 60149 9000.00000 0 1832104.892 21856568.003 -12992574.831 10 0 60149 9900.00000 0 1247063.311 20190552.098 -15512088.792 10 0 60149 10800.00000 0 410088.158 18311425.388 -17729724.623 10 0 60149 11700.00000 0 -690024.695 16281576.969 -19602330.290 10 0 60149 12600.00000 0 -2052089.845 14166352.991 -21093482.563 10 0 60149 13500.00000 0 -3662337.939 12031417.769 -22174197.134 10 0 60149 14400.00000 0 -5494759.379 9940120.370 -22823491.863 10 0 60149 15300.00000 0 -7511972.588 7950977.035 -23028792.427 10 0 60149 16200.00000 0 -9666581.123 6115374.547 -22786172.876 10 0 60149 17100.00000 0 -11902963.366 4475590.049 -22100426.862 10 0 60149 18000.00000 0 -14159420.311 3063209.283 -20984968.578 10 0 60149 18900.00000 0 -16370591.990 1898008.218 -19461565.745 10 0 60149 19800.00000 0 -18470041.821 987343.424 -17559910.170 10 0 60149 20700.00000 0 -20392901.092 326075.104 -15317034.495 10 0 60149 21600.00000 0 -22078463.318 -102975.728 -12776586.723 10 0 60149 22500.00000 0 -23472620.287 -328056.934 -9987976.830 10 0 60149 23400.00000 0 -24530038.215 -387044.277 -7005412.304 10 0 60149 24300.00000 0 -25215983.379 -325592.075 -3886841.621 10 0 60149 25200.00000 0 -25507721.340 -194954.812 -692826.447 10 0 60149 26100.00000 0 -25395431.725 -49572.748 2514635.191 10 0 60149 27000.00000 0 -24882600.971 55475.620 5673311.687 10 0 60149 27900.00000 0 -23985877.276 67046.072 8721943.092 10 0 60149 28800.00000 0 -22734394.503 -63582.900 11601425.389 10 0 60149 29700.00000 0 -21168593.916 -378410.986 14255951.002 10 0 60149 30600.00000 0 -19338593.408 -910703.371 16634083.882 10 0 60149 31500.00000 0 -17302172.534 -1683349.402 18689748.854 10 0 60149 32400.00000 0 -15122457.309 -2707661.897 20383116.852 10 0 60149 33300.00000 0 -12865400.903 -3982667.956 21681369.784 10 0 60149 34200.00000 0 -10597164.492 -5494921.726 22559330.984 10 0 60149 35100.00000 0 -8381506.358 -7218847.944 22999949.887 10 0 60149 36000.00000 0 -6277286.777 -9117603.198 22994632.012 10 0 60149 36900.00000 0 -4336191.343 -11144420.451 22543408.161 10 0 60149 37800.00000 0 -2600766.342 -13244382.412 21654939.442 10 0 60149 38700.00000 0 -1102846.928 -15356551.546 20346357.604 10 0 60149 39600.00000 0 137557.209 -17416369.484 18642942.980 10 0 60149 40500.00000 0 1112872.827 -19358227.176 16577645.336 10 0 60149 41400.00000 0 1828045.669 -21118099.593 14190455.712 10 0 60149 42300.00000 0 2300091.365 -22636135.519 11527640.343 10 0 60149 43200.00000 0 2557133.722 -23859094.376 8640850.488 10 0 60149 44100.00000 0 2636971.021 -24742527.788 5586124.621 10 0 60149 45000.00000 0 2585230.942 -25252613.842 2422801.951 10 0 60149 45900.00000 0 2453192.383 -25367566.190 -787631.772 10 0 60149 46800.00000 0 2295366.813 -25078557.773 -3982743.443 10 0 60149 47700.00000 0 2166942.309 -24390119.345 -7100372.899 10 0 60149 48600.00000 0 2121199.538 -23319995.075 -10079849.720 10 0 60149 49500.00000 0 2207010.317 -21898460.629 -12863182.010 10 0 60149 50400.00000 0 2466526.032 -20167131.921 -15396192.951 10 0 60149 51300.00000 0 2933155.111 -18177314.426 -17629582.247 10 0 60149 52200.00000 0 3629916.466 -15987962.353 -19519891.087 10 0 60149 53100.00000 0 4568239.698 -13663333.534 -21030351.417 10 0 60149 54000.00000 0 5747263.837 -11270438.502 -22131602.833 10 0 60149 54900.00000 0 7153665.126 -8876390.737 -22802263.206 10 0 60149 55800.00000 0 8762021.921 -6545768.983 -23029342.170 10 0 60149 56700.00000 0 10535701.992 -4338101.662 -22808489.844 10 0 60149 57600.00000 0 12428235.530 -2305577.976 -22144076.341 10 0 60149 58500.00000 0 14385116.637 -491080.550 -21049100.990 10 0 60149 59400.00000 0 16345958.106 1073379.338 -19544933.415 10 0 60149 60300.00000 0 18246909.460 2367759.931 -17660891.831 10 0 60149 61200.00000 0 20023237.121 3384576.241 -15433667.037 10 0 60149 62100.00000 0 21611958.800 4128953.585 -12906603.559 10 0 60149 63000.00000 0 22954421.911 4618147.041 -10128852.115 10 0 60149 63900.00000 0 23998718.090 4880548.890 -7154410.131 10 0 60149 64800.00000 0 24701832.895 4954227.559 -4041069.246 10 0 60149 65700.00000 0 25031440.807 4885061.245 -849290.492 10 0 60149 66600.00000 0 24967270.638 4724546.276 2358970.644 10 0 60149 67500.00000 0 24501984.518 4527373.803 5521466.249 10 0 60149 68400.00000 0 23641534.062 4348877.947 8576861.610 10 0 60149 69300.00000 0 22404979.232 4242463.673 11465921.016 10 0 60149 70200.00000 0 20823777.825 4257123.256 14132650.895 10 0 60149 71100.00000 0 18940575.539 4435146.199 16525378.552 10 0 60149 72000.00000 0 16807547.162 4810119.171 18597746.134 10 0 60149 72900.00000 0 14484357.905 5405300.168 20309601.343 10 0 60149 73800.00000 0 12035829.307 6232435.441 21627768.496 10 0 60149 74700.00000 0 9529406.160 7291069.194 22526685.845 10 0 60149 75600.00000 0 7032528.779 8568375.657 22988897.562 10 0 60149 76500.00000 0 4610018.667 10039521.506 23005391.454 10 0 60149 77400.00000 0 2321584.978 11668544.696 22575776.100 10 0 60149 78300.00000 0 219554.093 13409714.425 21708293.935 10 0 60149 79200.00000 0 -1653084.443 15209317.014 20419669.607 10 0 60149 80100.00000 0 -3264235.320 17007794.649 18734795.781 10 0 60149 81000.00000 0 -4593794.127 18742149.076 16686261.513 10 0 60149 81900.00000 0 -5634238.099 20348510.917 14313731.173 10 0 60149 82800.00000 0 -6390686.665 21764767.888 11663184.811 10 0 60149 83700.00000 0 -6880429.528 22933142.185 8786033.694 10 0 60149 84600.00000 0 -7131942.327 23802608.853 5738127.318 10 0 60149 85500.00000 0 -7183431.551 24331053.092 2578670.743 10 0 60150 0.00000 0 -7080970.399 24487074.946 -630926.550 10 0 60150 900.00000 0 -6876304.755 24251364.409 -3828249.414 10 0 60150 1800.00000 0 -6624422.934 23617587.713 -6951095.172 10 0 60150 2700.00000 0 -6380992.741 22592746.599 -9938692.360 10 0 60150 3600.00000 0 -6199775.569 21196994.095 -12732891.166 10 0 60150 4500.00000 0 -6130128.198 19462913.858 -15279303.115 10 0 60150 5400.00000 0 -6214699.271 17434292.755 -17528366.674 10 0 60150 6300.00000 0 -6487419.135 15164437.870 -19436317.415 10 0 60150 7200.00000 0 -6971869.130 12714108.419 -20966043.329 10 0 60150 8100.00000 0 -7680100.174 10149149.189 -22087808.513 10 0 60150 9000.00000 0 -8611951.303 7537924.536 -22779831.193 10 0 60150 9900.00000 0 -9754897.521 4948660.216 -23028705.062 10 0 60150 10800.00000 0 -11084433.857 2446803.820 -22829656.112 10 0 60150 11700.00000 0 -12564979.833 92513.582 -22186630.426 10 0 60150 12600.00000 0 -14151266.580 -2061620.340 -21112211.642 10 0 60150 13500.00000 0 -15790148.513 -3972528.010 -19627370.101 10 0 60150 14400.00000 0 -17422763.606 -5608205.094 -17761048.895 10 0 60150 15300.00000 0 -18986951.663 -6948788.373 -15549595.147 10 0 60150 16200.00000 0 -20419829.096 -7987118.191 -13036047.810 10 0 60150 17100.00000 0 -21660412.184 -8728766.117 -10269296.044 10 0 60150 18000.00000 0 -22652178.672 -9191528.588 -7303124.788 10 0 60150 18900.00000 0 -23345460.220 -9404409.696 -4195166.320 10 0 60150 19800.00000 0 -23699565.325 -9406137.675 -1005778.463 10 0 60150 20700.00000 0 -23684543.705 -9243279.159 2203128.460 10 0 60150 21600.00000 0 -23282518.266 -8968032.015 5369292.874 10 0 60150 22500.00000 0 -22488528.968 -8635790.894 8431307.962 10 0 60150 23400.00000 0 -21310853.425 -8302588.916 11329808.942 10 0 60150 24300.00000 0 -19770790.956 -8022523.832 14008618.784 10 0 60150 25200.00000 0 -17901919.152 -7845277.358 16415830.537 10 0 60150 26100.00000 0 -15748853.914 -7813832.179 18504805.822 10 0 60150 27000.00000 0 -13365564.345 -7962482.618 20235070.939 10 0 60150 27900.00000 0 -10813312.093 -8315222.532 21573094.087 10 0 60150 28800.00000 0 -8158300.089 -8884578.166 22492929.465 10 0 60150 29700.00000 0 -5469127.298 -9670935.192 22976716.594 10 0 60150 30600.00000 0 -2814153.962 -10662388.662 23015025.741 10 0 60150 31500.00000 0 -258885.376 -11835122.989 22607043.032 10 0 60150 32400.00000 0 2136518.576 -13154307.140 21760591.635 10 0 60150 33300.00000 0 4319505.998 -14575468.932 20491988.170 10 0 60150 34200.00000 0 6247074.718 -16046292.285 18825736.400 10 0 60150 35100.00000 0 7887313.339 -17508763.610 16794063.151 10 0 60150 36000.00000 0 9220478.071 -18901578.624 14436304.317 10 0 60150 36900.00000 0 10239560.833 -20162709.597 11798151.686 10 0 60150 37800.00000 0 10950325.195 -21232025.822 8930774.197 10 0 60150 38700.00000 0 11370808.891 -22053857.304 5889829.801 10 0 60150 39600.00000 0 11530313.989 -22579393.471 2734386.679 10 0 60150 40500.00000 0 11467927.561 -22768815.177 -474225.382 10 0 60150 41400.00000 0 11230635.640 -22593069.090 -3673610.922 10 0 60150 42300.00000 0 10871110.738 -22035208.394 -6801528.189 10 0 60150 43200.00000 0 10445267.249 -21091241.927 -9797107.472 10 0 60150 44100.00000 0 10009689.124 -19770454.650 -12602043.731 10 0 60150 45000.00000 0 9619039.739 -18095184.775 -15161739.359 10 0 60150 45900.00000 0 9323564.686 -16100065.963 -17426373.933 10 0 60150 46800.00000 0 9166794.205 -13830765.721 -19351879.488 10 0 60150 47700.00000 0 9183543.349 -11342272.447 -20900801.841 10 0 60150 48600.00000 0 9398295.211 -8696802.615 -22043031.014 10 0 60150 49500.00000 0 9824036.072 -5961415.457 -22756386.613 10 0 60150 50400.00000 0 10461592.019 -3205434.676 -23027046.977 10 0 60150 51300.00000 0 11299495.283 -497784.592 -22849814.149 10 0 60150 52200.00000 0 12314386.016 2095648.578 -22228209.942 10 0 60150 53100.00000 0 13471932.618 4514520.821 -21174401.667 10 0 60150 54000.00000 0 14728231.826 6706296.260 -19708959.383 10 0 60150 54900.00000 0 16031629.587 8628181.517 -17860449.702 10 0 60150 55800.00000 0 17324885.991 10248649.074 -15664874.353 10 0 60150 56700.00000 0 18547593.087 11548487.567 -13164964.645 10 0 60150 57600.00000 0 19638743.765 12521336.841 -10409345.762 10 0 60150 58500.00000 0 20539343.508 13173687.149 -7451587.391 10 0 60150 59400.00000 0 21194955.054 13524344.448 -4349159.410 10 0 60150 60300.00000 0 21558068.881 13603386.067 -1162313.167 10 0 60150 61200.00000 0 21590199.752 13450652.383 2047089.547 10 0 60150 62100.00000 0 21263621.217 13113839.476 5216776.879 10 0 60150 63000.00000 0 20562665.209 12646274.353 8285273.176 10 0 60150 63900.00000 0 19484532.204 12104467.384 11193087.663 10 0 60150 64800.00000 0 18039577.940 11545545.679 13883862.656 10 0 60150 65700.00000 0 16251064.543 11024675.796 16305459.421 10 0 60150 66600.00000 0 14154386.212 10592584.288 18410961.180 10 0 60150 67500.00000 0 11795801.279 10293280.225 20159574.588 10 0 60150 68400.00000 0 9230722.785 10162075.130 21517413.085 10 0 60150 69300.00000 0 6521637.787 10223983.241 22458147.784 10 0 60150 70200.00000 0 3735740.693 10492569.060 22963514.077 10 0 60150 71100.00000 0 942377.556 10969290.625 23023664.757 10 0 60150 72000.00000 0 -1789594.041 11643366.352 22637363.073 10 0 60150 72900.00000 0 -4394421.445 12492171.706 21812011.988 10 0 60150 73800.00000 0 -6811942.552 13482149.974 20563518.641 10 0 60150 74700.00000 0 -8989838.584 14570200.121 18915995.956 10 0 60150 75600.00000 0 -10885561.356 15705484.708 16901306.163 10 0 60150 76500.00000 0 -12467855.602 16831583.176 14558453.960 10 0 60150 77400.00000 0 -13717813.321 17888901.022 11932839.917 10 0 60150 78300.00000 0 -14629416.426 18817234.225 9075387.543 10 0 60150 79200.00000 0 -15209545.131 19558381.256 6041560.110 10 0 60150 80100.00000 0 -15477451.847 20058692.446 2890285.821 10 0 60150 81000.00000 0 -15463722.860 20271448.602 -317187.948 10 0 60150 81900.00000 0 -15208771.834 20158967.508 -3518488.866 10 0 60150 82800.00000 0 -14760929.093 19694348.153 -6651338.518 10 0 60150 83700.00000 0 -14174208.072 18862777.591 -9654771.420 10 0 60150 84600.00000 0 -13505844.095 17662343.834 -12470329.545 10 0 60150 85500.00000 0 -12813710.537 16104319.078 -15043208.102 10 0 60151 0.00000 0 -12153722.647 14212900.261 -17323329.222 10 0 60151 900.00000 0 -11577339.426 12024415.730 -19266323.137 10 0 60151 1800.00000 0 -11129270.854 9586033.127 -20834394.263 10 0 60151 2700.00000 0 -10845486.783 6954018.687 -21997059.230 10 0 60151 3600.00000 0 -10751612.913 4191622.812 -22731739.411 10 0 60151 4500.00000 0 -10861781.363 1366679.039 -23024197.889 10 0 60151 5400.00000 0 -11177984.383 -1450983.550 -22868812.554 10 0 60151 6300.00000 0 -11689958.265 -4192206.941 -22268680.443 10 0 60151 7200.00000 0 -12375602.086 -6791139.145 -21235551.716 10 0 60151 8100.00000 0 -13201913.232 -9187728.382 -19789594.997 10 0 60151 9000.00000 0 -14126399.947 -11329973.454 -17958998.955 10 0 60151 9900.00000 0 -15098910.996 -13175837.508 -15779418.173 10 0 60151 10800.00000 0 -16063804.990 -14694746.676 -13293274.327 10 0 60151 11700.00000 0 -16962367.662 -15868612.479 -10548926.448 10 0 60151 12600.00000 0 -17735374.904 -16692336.862 -7599726.675 10 0 60151 13500.00000 0 -18325693.337 -17173780.452 -4502980.091 10 0 60151 14400.00000 0 -18680808.594 -17333197.153 -1318829.133 10 0 60151 15300.00000 0 -18755174.647 -17202160.500 1890915.430 10 0 60151 16200.00000 0 -18512285.120 -16822028.489 5063973.988 10 0 60151 17100.00000 0 -17926379.319 -16242012.804 8138804.601 10 0 60151 18000.00000 0 -16983711.149 -15516934.746 11055793.049 10 0 60151 18900.00000 0 -15683327.487 -14704763.064 13758403.494 10 0 60151 19800.00000 0 -14037323.114 -13864037.655 16194267.818 10 0 60151 20700.00000 0 -12070561.169 -13051287.591 18316193.057 10 0 60151 21600.00000 0 -9819870.201 -12318551.757 20083068.183 10 0 60151 22500.00000 0 -7332750.499 -11711105.857 21460653.525 10 0 60151 23400.00000 0 -4665642.552 -11265490.676 22422238.387 10 0 60151 24300.00000 0 -1881828.371 -11007923.859 22949154.935 10 0 60151 25200.00000 0 950948.622 -10953161.394 23031138.989 10 0 60151 26100.00000 0 3763047.856 -11103856.447 22666531.054 10 0 60151 27000.00000 0 6485575.246 -11450442.540 21862313.656 10 0 60151 27900.00000 0 9052998.000 -11971546.437 20633983.897 10 0 60151 28800.00000 0 11405623.363 -12634914.111 19005262.975 10 0 60151 29700.00000 0 13491839.391 -13398811.840 17007647.324 10 0 60151 30600.00000 0 15270025.337 -14213844.492 14679808.922 10 0 60151 31500.00000 0 16710052.531 -15025115.446 12066855.244 10 0 60151 32400.00000 0 17794313.365 -15774637.866 9219462.159 10 0 60151 33300.00000 0 18518235.419 -16403896.098 6192895.704 10 0 60151 34200.00000 0 18890259.164 -16856449.079 3045941.263 10 0 60151 35100.00000 0 18931280.156 -17080465.395 -160239.259 10 0 60151 36000.00000 0 18673579.304 -17031082.036 -3363299.843 10 0 60151 36900.00000 0 18159286.485 -16672485.980 -6500928.616 10 0 60151 37800.00000 0 17438442.792 -15979629.198 -9512067.456 10 0 60151 38700.00000 0 16566743.800 -14939503.095 -12338108.329 10 0 60151 39600.00000 0 15603059.988 -13551917.000 -14924042.034 10 0 60151 40500.00000 0 14606839.890 -11829746.419 -17219536.158 10 0 60151 41400.00000 0 13635506.526 -9798639.264 -19179920.537 10 0 60151 42300.00000 0 12741957.797 -7496191.314 -20767060.528 10 0 60151 43200.00000 0 11972276.918 -4970624.625 -21950100.920 10 0 60151 44100.00000 0 11363749.799 -2279023.526 -22706065.999 10 0 60151 45000.00000 0 10943273.031 514798.493 -23020304.330 10 0 60151 45900.00000 0 10726219.412 3342712.387 -22886769.966 10 0 60151 46800.00000 0 10715808.346 6134867.384 -22308135.053 10 0 60151 47700.00000 0 10903007.091 8822357.339 -21295732.081 10 0 60151 48600.00000 0 11266966.303 11339849.054 -19869327.325 10 0 60151 49500.00000 0 11775970.765 13628063.762 -18056730.215 10 0 60151 50400.00000 0 12388864.507 15636009.149 -15893246.523 10 0 60151 51300.00000 0 13056889.525 17322869.871 -13420986.254 10 0 60151 52200.00000 0 13725859.918 18659478.853 -10688039.896 10 0 60151 53100.00000 0 14338579.178 19629309.231 -7747539.309 10 0 60151 54000.00000 0 14837398.164 20228946.971 -4656621.763 10 0 60151 54900.00000 0 15166805.427 20468025.914 -1475317.536 10 0 60151 55800.00000 0 15275940.321 20368629.606 1734617.001 10 0 60151 56700.00000 0 15120922.639 19964186.515 4910897.880 10 0 60151 57600.00000 0 14666900.428 19297906.457 7991920.193 10 0 60151 58500.00000 0 13889729.548 18420825.049 10917949.416 10 0 60151 59400.00000 0 12777214.142 17389539.248 13632274.451 10 0 60151 60300.00000 0 11329855.625 16263729.604 16082300.386 10 0 60151 61200.00000 0 9561078.325 15103573.493 18220560.337 10 0 60151 62100.00000 0 7496921.747 13967157.720 20005627.506 10 0 60151 63000.00000 0 5175211.409 12907998.596 21402910.651 10 0 60151 63900.00000 0 2644241.745 11972772.845 22385318.425 10 0 60151 64800.00000 0 -38975.413 11199353.677 22933780.500 10 0 60151 65700.00000 0 -2810825.519 10615233.625 23037616.010 10 0 60151 66600.00000 0 -5603482.935 10236399.646 22694742.505 10 0 60151 67500.00000 0 -8347481.913 10066707.282 21911721.353 10 0 60151 68400.00000 0 -10974361.827 10097780.055 20703638.358 10 0 60151 69300.00000 0 -13419278.261 10309438.559 19093821.216 10 0 60151 70200.00000 0 -15623472.637 10670641.704 17113398.296 10 0 60151 71100.00000 0 -17536498.528 11140901.201 14800706.180 10 0 60151 72000.00000 0 -19118112.429 11672110.453 12200556.264 10 0 60151 72900.00000 0 -20339750.314 12210711.391 9363373.587 10 0 60151 73800.00000 0 -21185528.246 12700108.254 6344223.687 10 0 60151 74700.00000 0 -21652724.932 13083226.440 3201745.872 10 0 60151 75600.00000 0 -21751725.766 13305107.979 -2986.587 10 0 60151 76500.00000 0 -21505430.543 13315433.153 -3207657.009 10 0 60151 77400.00000 0 -20948149.731 13070860.528 -6349922.911 10 0 60151 78300.00000 0 -20124036.011 12537085.028 -9368636.185 10 0 60151 79200.00000 0 -19085117.577 11690525.501 -12205041.206 10 0 60151 80100.00000 0 -17889016.766 10519568.821 -14803926.518 10 0 60151 81000.00000 0 -16596450.991 9025316.427 -17114706.809 10 0 60151 81900.00000 0 -15268622.096 7221800.323 -19092413.413 10 0 60151 82800.00000 0 -13964604.962 5135658.157 -20698573.517 10 0 60151 83700.00000 0 -12738845.912 2805279.914 -21901960.775 10 0 60151 84600.00000 0 -11638876.618 279461.063 -22679202.711 10 0 60151 85500.00000 0 -10703339.744 -2384382.116 -23015233.313 10 0 60152 0.00000 0 -9960409.225 -5122360.773 -22903582.406 10 0 60152 900.00000 0 -9426670.693 -7866537.587 -22346496.467 10 0 60152 1800.00000 0 -9106509.298 -10547522.339 -21354889.220 10 0 60152 2700.00000 0 -8992028.417 -13097136.110 -19948123.213 10 0 60152 3600.00000 0 -9063502.576 -15451029.946 -18153626.988 10 0 60152 4500.00000 0 -9290344.001 -17551150.890 -16006355.640 10 0 60152 5400.00000 0 -9632541.047 -19347953.040 -13548105.467 10 0 60152 6300.00000 0 -10042506.844 -20802262.293 -10826696.269 10 0 60152 7200.00000 0 -10467259.245 -21886717.883 -7895037.431 10 0 60152 8100.00000 0 -10850839.323 -22586731.657 -4810096.204 10 0 60152 9000.00000 0 -11136865.634 -22900926.259 -1631788.507 10 0 60152 9900.00000 0 -11271115.888 -22841035.197 1578185.864 10 0 60152 10800.00000 0 -11204026.647 -22431270.397 4757540.757 10 0 60152 11700.00000 0 -10893005.283 -21707185.067 7844610.472 10 0 60152 12600.00000 0 -10304456.453 -20714080.715 10779542.363 10 0 60152 13500.00000 0 -9415437.540 -19505026.109 13505452.242 10 0 60152 14400.00000 0 -8214873.118 -18138571.853 15969520.526 10 0 60152 15300.00000 0 -6704277.053 -16676256.712 18124008.435 10 0 60152 16200.00000 0 -4897951.391 -15180010.098 19927175.268 10 0 60152 17100.00000 0 -2822652.843 -13709559.079 21344079.880 10 0 60152 18000.00000 0 -516739.776 -12319947.796 22347251.676 10 0 60152 18900.00000 0 1971166.087 -11059272.199 22917218.957 10 0 60152 19800.00000 0 4583949.127 -9966723.923 23042884.995 10 0 60152 20700.00000 0 7258128.512 -9071024.268 22721744.904 10 0 60152 21600.00000 0 9926259.441 -8389313.051 21959939.107 10 0 60152 22500.00000 0 12519508.932 -7926538.356 20772142.030 10 0 60152 23400.00000 0 14970300.634 -7675372.532 19181287.475 10 0 60152 24300.00000 0 17214920.038 -7616657.997 17218135.048 10 0 60152 25200.00000 0 19195972.633 -7720364.374 14920684.889 10 0 60152 26100.00000 0 20864593.142 -7947017.115 12333450.903 10 0 60152 27000.00000 0 22182313.880 -8249537.807 9506605.493 10 0 60152 27900.00000 0 23122514.058 -8575418.854 6495011.484 10 0 60152 28800.00000 0 23671388.999 -8869140.746 3357159.513 10 0 60152 29700.00000 0 23828398.222 -9074729.489 154031.293 10 0 60152 30600.00000 0 23606173.105 -9138345.391 -3052089.006 10 0 60152 31500.00000 0 23029887.734 -9010792.710 -6198831.591 10 0 60152 32400.00000 0 22136119.228 -8649842.639 -9224961.683 10 0 60152 33300.00000 0 20971245.689 -8022269.892 -12071579.287 10 0 60152 34200.00000 0 19589449.564 -7105515.108 -14683273.726 10 0 60152 35100.00000 0 18050411.055 -5888901.220 -17009209.591 10 0 60152 36000.00000 0 16416789.324 -4374350.880 -19004122.238 10 0 60152 36900.00000 0 14751598.179 -2576573.276 -20629202.911 10 0 60152 37800.00000 0 13115587.136 -522711.212 -21852856.025 10 0 60152 38700.00000 0 11564738.318 1748537.783 -22651313.900 10 0 60152 39600.00000 0 10147984.413 4188290.337 -23009097.125 10 0 60152 40500.00000 0 8905243.286 6739279.488 -22919312.022 10 0 60152 41400.00000 0 7865851.167 9338015.558 -22383779.800 10 0 60152 42300.00000 0 7047459.335 11917215.831 -21412995.370 10 0 60152 43200.00000 0 6455439.479 14408402.081 -20025917.039 10 0 60152 44100.00000 0 6082821.424 16744558.007 -18249591.515 10 0 60152 45000.00000 0 5910764.406 18862736.145 -16118621.818 10 0 60152 45900.00000 0 5909540.654 20706506.006 -13674488.721 10 0 60152 46800.00000 0 6039988.444 22228141.845 -10964739.095 10 0 60152 47700.00000 0 6255372.092 23390459.408 -8042057.211 10 0 60152 48600.00000 0 6503569.298 24168225.696 -4963237.327 10 0 60152 49500.00000 0 6729492.528 24549083.793 -1788077.754 10 0 60152 50400.00000 0 6877641.399 24533955.065 1421781.717 10 0 60152 51300.00000 0 6894677.686 24136903.073 4604056.257 10 0 60152 52200.00000 0 6731913.779 23384465.975 7697022.847 10 0 60152 53100.00000 0 6347609.258 22314486.478 10640714.062 10 0 60152 54000.00000 0 5708978.509 20974489.225 13378075.754 10 0 60152 54900.00000 0 4793824.581 19419674.194 15856066.540 10 0 60152 55800.00000 0 3591730.271 17710610.477 18026678.304 10 0 60152 56700.00000 0 2104755.920 15910726.891 19847858.683 10 0 60152 57600.00000 0 347614.002 14083703.974 21284318.515 10 0 60152 58500.00000 0 -1652687.754 12290875.702 22308209.479 10 0 60152 59400.00000 0 -3857721.043 10588748.528 22899659.621 10 0 60152 60300.00000 0 -6218994.496 9026740.258 23047157.030 10 0 60152 61200.00000 0 -8679739.115 7645232.107 22747774.576 10 0 60152 62100.00000 0 -11177049.161 6474014.272 22007231.411 10 0 60152 63000.00000 0 -13644291.201 5531189.107 20839789.697 10 0 60152 63900.00000 0 -16013682.758 4822577.193 19267987.897 10 0 60152 64800.00000 0 -18218934.656 4341650.812 17322214.857 10 0 60152 65700.00000 0 -20197848.125 4069997.485 15040131.786 10 0 60152 66600.00000 0 -21894759.008 3978294.198 12465952.191 10 0 60152 67500.00000 0 -23262727.335 4027751.444 9649592.616 10 0 60152 68400.00000 0 -24265380.587 4171966.394 6645709.755 10 0 60152 69300.00000 0 -24878333.036 4359106.953 3512642.067 10 0 60152 70200.00000 0 -25090121.031 4534334.183 311276.212 10 0 60152 71100.00000 0 -24902614.265 4642360.102 -2896139.551 10 0 60152 72000.00000 0 -24330885.085 4630031.747 -6047211.384 10 0 60152 72900.00000 0 -23402540.867 4448830.940 -9080620.911 10 0 60152 73800.00000 0 -22156547.280 4057182.561 -11937326.612 10 0 60152 74700.00000 0 -20641591.988 3422472.096 -14561721.170 10 0 60152 75600.00000 0 -18914057.860 2522685.568 -16902721.318 10 0 60152 76500.00000 0 -17035691.369 1347600.992 -18914768.278 10 0 60152 77400.00000 0 -15071064.676 -100520.361 -20558718.727 10 0 60152 78300.00000 0 -13084938.467 -1806773.300 -21802608.724 10 0 60152 79200.00000 0 -11139636.550 -3743986.581 -22622275.727 10 0 60152 80100.00000 0 -9292542.440 -5873624.334 -23001826.764 10 0 60152 81000.00000 0 -7593822.659 -8147174.026 -22933944.019 10 0 60152 81900.00000 0 -6084471.629 -10507963.489 -22420022.315 10 0 60152 82800.00000 0 -4794759.209 -12893331.426 -21470136.259 10 0 60152 83700.00000 0 -3743144.802 -15237061.121 -20102838.116 10 0 60152 84600.00000 0 -2935702.105 -17471976.011 -18344790.703 10 0 60152 85500.00000 0 -2366077.122 -19532589.004 -16230242.733 99